Home > Weather > Arden-Arcade > Past weeks

Flag for U.S.A. Weather for the Past 2 Weeks in Arden-Arcade, California, U.S.A.

Now
63 °F

Passing clouds.


Feels Like: 63 °F
Forecast: 47 / 71 °F
Wind: 3 mph from Southwest

Location: Mather Field

Current Time: Feb 12, 2016 at 6:54:27 PM

Latest Report: Feb 12, 2016 at 5:45 PM


Visibility: 10 mi

Pressure: 30.16 "Hg

Humidity: 59%

Dew point: 48 °F

Location of Arden-ArcadeLocation

Historic Weather in Arden-Arcade — Graph

°F

Arden-Arcade Temperature Yesterday

Maximum temperature yesterday: 72 °F (at 3:50 PM)
Minimum temperature yesterday: 43 °F (at 5:55 AM)
Average temperature yesterday: 57 °F

High & Low Weather Summary for the Past Weeks

 TemperatureHumidityPressure
High73 °F (Feb 9, 2:45 PM)100% (Jan 29, 7:45 PM)30.48 "Hg (Jan 29, 7:45 PM)
Low32 °F (Feb 3, 2:55 AM)26% (Feb 1, 12:45 PM)29.70 "Hg (Jan 31, 2:45 PM)
Average51 °F75%30.23 "Hg
* Reported Jan 28 4:50 PM — Feb 12 3:45 PM, Arden-Arcade, Weather by CustomWeather, © 2016

Note: Actual official high and low records may vary slightly from our data, if they occured in-between our weather recording intervals... More about our weather records

Advertising

Arden-Arcade Weather History for the Previous 24 Hours

 ConditionsComfort  
Time TempWeatherWind HumidityBarometerVisibility
3:45 PM
Fri, Feb 12
68 °FScattered clouds.3 mph49%30.15 "Hg10 mi
2:45 PM68 °FScattered clouds.5 mph49%30.15 "Hg10 mi
1:45 PM68 °FScattered clouds.3 mph49%30.16 "Hg10 mi
12:45 PM68 °FScattered clouds.3 mph53%30.19 "Hg10 mi
11:45 AM55 °FScattered clouds.5 mph82%30.22 "Hg10 mi
10:45 AM63 °FScattered clouds.N/A52%30.23 "Hg10 mi
9:45 AM57 °FScattered clouds.No wind59%30.23 "Hg10 mi
8:45 AM48 °FScattered clouds.No wind87%30.22 "Hg10 mi
7:50 AM41 °FScattered clouds.No wind100%30.21 "Hg10 mi
6:50 AM41 °FClear.No wind100%30.20 "Hg10 mi
5:55 AM43 °FClear.No wind93%30.18 "Hg10 mi
4:55 AM43 °FClear.No wind93%30.18 "Hg10 mi
3:55 AM45 °FClear.No wind93%30.18 "Hg10 mi
2:55 AM45 °FClear.5 mph93%30.18 "Hg10 mi
11:30 PM
Thu, Feb 11
48 °FClear.No wind94%30.18 "Hg10 mi
10:45 PM48 °FClear.No wind87%30.17 "Hg10 mi
9:45 PM52 °FClear.No wind82%30.17 "Hg10 mi
8:55 PM50 °FClear.No wind88%30.16 "Hg10 mi
7:45 PM55 °FClear.No wind77%30.15 "Hg10 mi
6:45 PM57 °FClear.No wind72%30.15 "Hg10 mi
Weather by CustomWeather, © 2016

See weather overviewHow to use our weather pages